TimePST,TemperatureF,Dew PointF,Humidity,Sea Level PressureIn,VisibilityMPH,Wind Direction,Wind SpeedMPH,Gust SpeedMPH,PrecipitationIn,Events,Conditions,WindDirDegrees,DateUTC
12:56 AM,32.0,21.0,64,30.05,10.0,SSW,4.6,-,N/A,,Overcast,210,2012-12-19 08:56:00
1:56 AM,32.0,21.0,64,30.06,10.0,SSW,8.1,-,N/A,,Mostly Cloudy,210,2012-12-19 09:56:00
2:56 AM,30.9,21.0,67,30.08,10.0,SW,6.9,-,N/A,,Mostly Cloudy,230,2012-12-19 10:56:00
3:56 AM,28.9,19.9,69,30.09,10.0,Calm,Calm,-,N/A,,Partly Cloudy,0,2012-12-19 11:56:00
4:56 AM,30.0,19.9,66,30.09,10.0,Calm,Calm,-,N/A,,Clear,0,2012-12-19 12:56:00
5:56 AM,30.0,19.0,64,30.10,10.0,Calm,Calm,-,N/A,,Clear,0,2012-12-19 13:56:00
6:56 AM,30.0,19.0,64,30.10,10.0,Calm,Calm,-,N/A,,Partly Cloudy,0,2012-12-19 14:56:00
7:56 AM,30.9,19.9,64,30.10,10.0,SSE,4.6,-,N/A,,Mostly Cloudy,160,2012-12-19 15:56:00
8:56 AM,33.1,19.9,59,30.10,10.0,Calm,Calm,-,N/A,,Overcast,0,2012-12-19 16:56:00
9:56 AM,35.1,18.0,50,30.11,10.0,SE,4.6,-,N/A,,Overcast,130,2012-12-19 17:56:00
10:56 AM,36.0,16.0,44,30.10,10.0,South,6.9,-,N/A,,Overcast,170,2012-12-19 18:56:00
11:56 AM,36.0,17.1,46,30.07,10.0,South,9.2,-,N/A,,Overcast,190,2012-12-19 19:56:00
12:56 PM,37.0,17.1,44,30.06,10.0,East,3.5,-,N/A,,Overcast,90,2012-12-19 20:56:00
1:56 PM,37.0,18.0,46,30.07,10.0,Calm,Calm,-,N/A,,Overcast,0,2012-12-19 21:56:00
2:56 PM,37.0,18.0,46,30.07,10.0,Calm,Calm,-,N/A,,Overcast,0,2012-12-19 22:56:00
3:56 PM,36.0,19.0,50,30.07,10.0,NNE,3.5,-,N/A,,Overcast,30,2012-12-19 23:56:00
4:56 PM,35.1,21.0,57,30.06,10.0,Calm,Calm,-,N/A,,Overcast,0,2012-12-20 00:56:00
5:56 PM,37.0,19.0,48,30.06,10.0,Calm,Calm,-,N/A,,Overcast,0,2012-12-20 01:56:00
6:56 PM,37.0,23.0,57,30.06,10.0,South,8.1,-,N/A,,Overcast,190,2012-12-20 02:56:00
7:56 PM,35.1,23.0,61,30.05,10.0,NE,3.5,-,N/A,,Overcast,40,2012-12-20 03:56:00
8:56 PM,36.0,24.1,62,30.04,10.0,Calm,Calm,-,N/A,,Overcast,0,2012-12-20 04:56:00
9:56 PM,37.0,21.9,54,30.03,10.0,Variable,4.6,-,N/A,,Overcast,0,2012-12-20 05:56:00
10:56 PM,36.0,23.0,59,30.02,10.0,SE,3.5,-,N/A,,Overcast,140,2012-12-20 06:56:00
11:56 PM,37.0,21.9,54,30.01,10.0,East,4.6,-,N/A,,Mostly Cloudy,90,2012-12-20 07:56:00